TimeEST,TemperatureF,Dew PointF,Humidity,Sea Level PressureIn,VisibilityMPH,Wind Direction,Wind SpeedMPH,Gust SpeedMPH,PrecipitationIn,Events,Conditions,WindDirDegrees,DateUTC
12:15 AM,-7.6,-13.0,77,30.43,7.0,Calm,Calm,-,N/A,,Clear,0,2014-02-12 05:15:00
12:35 AM,-4.0,-9.4,78,30.42,7.0,Calm,Calm,-,N/A,,Clear,0,2014-02-12 05:35:00
12:55 AM,-7.6,-13.0,77,30.42,10.0,Calm,Calm,-,N/A,,Clear,0,2014-02-12 05:55:00
1:15 AM,-7.6,-13.0,77,30.41,7.0,Calm,Calm,-,N/A,,Clear,0,2014-02-12 06:15:00
1:35 AM,-9.4,-16.6,71,30.39,5.0,Calm,Calm,-,N/A,,Haze,0,2014-02-12 06:35:00
1:55 AM,-7.6,-14.8,71,30.38,7.0,Calm,Calm,-,N/A,,Clear,0,2014-02-12 06:55:00
2:15 AM,-9.4,-16.6,71,30.37,7.0,ENE,3.5,-,N/A,,Clear,70,2014-02-12 07:15:00
2:35 AM,-9.4,-16.6,71,30.36,7.0,Calm,Calm,-,N/A,,Clear,0,2014-02-12 07:35:00
2:55 AM,-9.4,-16.6,71,30.37,7.0,Calm,Calm,-,N/A,,Clear,0,2014-02-12 07:55:00
3:15 AM,-9.4,-16.6,71,30.36,10.0,Calm,Calm,-,N/A,,Clear,0,2014-02-12 08:15:00
3:35 AM,-11.2,-16.6,77,30.36,10.0,Calm,Calm,-,N/A,,Clear,0,2014-02-12 08:35:00
3:55 AM,-11.2,-16.6,77,30.37,10.0,Calm,Calm,-,N/A,,Clear,0,2014-02-12 08:55:00
4:15 AM,-9.4,-14.8,77,30.37,10.0,Calm,Calm,-,N/A,,Clear,0,2014-02-12 09:15:00
4:35 AM,-9.4,-16.6,71,30.36,10.0,Calm,Calm,-,N/A,,Clear,0,2014-02-12 09:35:00
4:55 AM,-11.2,-18.4,70,30.36,10.0,Calm,Calm,-,N/A,,Clear,0,2014-02-12 09:55:00
5:15 AM,-13.0,-18.4,77,30.35,10.0,Calm,Calm,-,N/A,,Clear,0,2014-02-12 10:15:00
5:35 AM,-9.4,-16.6,71,30.35,10.0,Calm,Calm,-,N/A,,Clear,0,2014-02-12 10:35:00
5:55 AM,-9.4,-16.6,71,30.35,10.0,Calm,Calm,-,N/A,,Clear,0,2014-02-12 10:55:00
6:15 AM,-9.4,-14.8,77,30.34,10.0,Calm,Calm,-,N/A,,Clear,0,2014-02-12 11:15:00
6:35 AM,-13.0,-18.4,77,30.32,10.0,Calm,Calm,-,N/A,,Clear,0,2014-02-12 11:35:00
6:55 AM,-13.0,-18.4,77,30.32,10.0,Calm,Calm,-,N/A,,Clear,0,2014-02-12 11:55:00
7:15 AM,-11.2,-16.6,77,30.32,10.0,Calm,Calm,-,N/A,,Clear,0,2014-02-12 12:15:00
7:35 AM,-9.4,-14.8,77,30.32,10.0,Calm,Calm,-,N/A,,Clear,0,2014-02-12 12:35:00
7:55 AM,-13.0,-18.4,77,30.31,7.0,Calm,Calm,-,N/A,,Clear,0,2014-02-12 12:55:00
8:15 AM,-13.0,-18.4,77,30.31,7.0,Calm,Calm,-,N/A,,Clear,0,2014-02-12 13:15:00
8:35 AM,-9.4,-14.8,77,30.31,2.0,Calm,Calm,-,N/A,Snow,Light Snow,0,2014-02-12 13:35:00
8:55 AM,-7.6,-13.0,77,30.31,2.0,Calm,Calm,-,N/A,Snow,Light Snow,0,2014-02-12 13:55:00
9:15 AM,-5.8,-13.0,71,30.31,2.5,Calm,Calm,-,N/A,Snow,Light Snow,0,2014-02-12 14:15:00
9:35 AM,-2.2,-7.6,78,30.31,5.0,East,3.5,-,N/A,Snow,Light Snow,80,2014-02-12 14:35:00
9:55 AM,-0.4,-4.0,85,30.31,4.0,ESE,3.5,-,N/A,Snow,Light Snow,110,2014-02-12 14:55:00
10:15 AM,3.2,-2.2,78,30.31,2.5,Calm,Calm,-,N/A,Snow,Light Snow,0,2014-02-12 15:15:00
10:35 AM,5.0,-0.4,78,30.29,3.0,Calm,Calm,-,N/A,Snow,Light Snow,0,2014-02-12 15:35:00
10:55 AM,3.2,-0.4,85,30.28,7.0,Calm,Calm,-,N/A,,Clear,0,2014-02-12 15:55:00
11:15 AM,5.0,1.4,85,30.29,7.0,Calm,Calm,-,N/A,,Clear,0,2014-02-12 16:15:00
11:35 AM,8.6,3.2,79,30.28,7.0,Calm,Calm,-,N/A,,Clear,0,2014-02-12 16:35:00
11:55 AM,10.4,6.8,85,30.28,7.0,Calm,Calm,-,N/A,,Clear,0,2014-02-12 16:55:00
12:15 PM,12.2,8.6,85,30.27,10.0,Calm,Calm,-,N/A,,Clear,0,2014-02-12 17:15:00
12:35 PM,12.2,8.6,85,30.25,10.0,Calm,Calm,-,N/A,,Clear,0,2014-02-12 17:35:00
12:55 PM,14.0,6.8,73,30.23,10.0,Calm,Calm,-,N/A,,Clear,0,2014-02-12 17:55:00
1:15 PM,17.6,5.0,58,30.21,10.0,ENE,4.6,-,N/A,,Clear,60,2014-02-12 18:15:00
1:35 PM,19.4,5.0,54,30.20,10.0,East,3.5,-,N/A,,Clear,100,2014-02-12 18:35:00
1:55 PM,21.2,5.0,50,30.18,10.0,East,3.5,-,N/A,,Clear,100,2014-02-12 18:55:00
2:15 PM,21.2,5.0,50,30.16,10.0,Calm,Calm,-,N/A,,Clear,0,2014-02-12 19:15:00
2:35 PM,21.2,6.8,54,30.15,10.0,ENE,5.8,-,N/A,,Clear,70,2014-02-12 19:35:00
2:55 PM,21.2,6.8,54,30.15,10.0,East,4.6,-,N/A,,Clear,100,2014-02-12 19:55:00
3:15 PM,23.0,5.0,46,30.14,10.0,ESE,3.5,-,N/A,,Clear,110,2014-02-12 20:15:00
3:35 PM,23.0,5.0,46,30.14,10.0,Calm,Calm,-,N/A,,Clear,0,2014-02-12 20:35:00
3:55 PM,21.2,5.0,50,30.14,10.0,Calm,Calm,-,N/A,,Clear,0,2014-02-12 20:55:00
4:15 PM,23.0,5.0,46,30.13,10.0,Calm,Calm,-,N/A,,Clear,0,2014-02-12 21:15:00
4:35 PM,23.0,5.0,46,30.12,10.0,Calm,Calm,-,N/A,,Clear,0,2014-02-12 21:35:00
4:55 PM,19.4,5.0,54,30.12,10.0,Calm,Calm,-,N/A,,Clear,0,2014-02-12 21:55:00
5:15 PM,19.4,5.0,54,30.12,10.0,Calm,Calm,-,N/A,,Scattered Clouds,0,2014-02-12 22:15:00
5:35 PM,19.4,5.0,54,30.11,10.0,Calm,Calm,-,N/A,,Scattered Clouds,0,2014-02-12 22:35:00
5:55 PM,19.4,5.0,54,30.10,10.0,Calm,Calm,-,N/A,,Overcast,0,2014-02-12 22:55:00
6:15 PM,19.4,5.0,54,30.10,10.0,Calm,Calm,-,N/A,,Overcast,0,2014-02-12 23:15:00
6:35 PM,19.4,5.0,54,30.09,10.0,ESE,3.5,-,N/A,,Overcast,110,2014-02-12 23:35:00
6:55 PM,19.4,5.0,54,30.09,10.0,Calm,Calm,-,N/A,,Overcast,0,2014-02-12 23:55:00
7:15 PM,19.4,6.8,58,30.10,10.0,Calm,Calm,-,N/A,,Overcast,0,2014-02-13 00:15:00
7:35 PM,19.4,8.6,63,30.10,10.0,Calm,Calm,-,N/A,,Overcast,0,2014-02-13 00:35:00
7:55 PM,19.4,8.6,63,30.11,10.0,Calm,Calm,-,N/A,,Overcast,0,2014-02-13 00:55:00
8:15 PM,17.6,6.8,63,30.11,10.0,Calm,Calm,-,N/A,,Overcast,0,2014-02-13 01:15:00
8:35 PM,17.6,6.8,63,30.12,10.0,ENE,3.5,-,N/A,,Overcast,60,2014-02-13 01:35:00
8:55 PM,17.6,8.6,68,30.12,10.0,Calm,Calm,-,N/A,,Overcast,0,2014-02-13 01:55:00
9:15 PM,17.6,5.0,58,30.11,10.0,Calm,Calm,-,N/A,,Mostly Cloudy,0,2014-02-13 02:15:00
9:35 PM,14.0,5.0,67,30.09,10.0,East,3.5,-,N/A,,Clear,90,2014-02-13 02:35:00
9:55 PM,12.2,3.2,67,30.09,10.0,Calm,Calm,-,N/A,,Clear,0,2014-02-13 02:55:00
10:15 PM,12.2,3.2,67,30.09,10.0,ENE,3.5,-,N/A,,Clear,70,2014-02-13 03:15:00
10:35 PM,10.4,3.2,73,30.08,10.0,Calm,Calm,-,N/A,,Clear,0,2014-02-13 03:35:00
10:55 PM,10.4,3.2,73,30.08,10.0,Calm,Calm,-,N/A,,Clear,0,2014-02-13 03:55:00
11:15 PM,10.4,3.2,73,30.06,10.0,Calm,Calm,-,N/A,,Clear,0,2014-02-13 04:15:00
11:35 PM,10.4,3.2,73,30.05,10.0,ENE,3.5,-,N/A,,Clear,70,2014-02-13 04:35:00
11:55 PM,8.6,3.2,79,30.05,10.0,East,4.6,-,N/A,,Clear,90,2014-02-13 04:55:00